Temp
-18 -18 -17 -17 -16 -17 -17 -16 -16 -15 -15 -15 -14 -14 -13 -14 -13 -11 -12 -12 -13 -12 -12 -11 -10 -10 -10 -10 -10 -10 -10 -10 -10 -10 -10 -10 -10 -10 -9 -9 -10 -10 -10 -10
-17 -17 -18 -18 -18 -17 -17 -17 -17 -16 -16 -15 -15 -14 -14 -13 -13 -13 -12 -13 -13 -12 -12 -11 -11 -11 -11 -11 -10 -10 -10 -10 -10 -10 -10 -10 -10 -10 -10 -10 -10 -10 -10 -10
-17 -18 -19 -18 -18 -18 -17 -17 -17 -17 -16 -16 -16 -15 -14 -12 -13 -13 -13 -13 -13 -13 -12 -11 -11 -11 -11 -11 -11 -11 -11 -10 -10 -10 -10 -10 -10 -10 -10 -10 -10 -10 -10 -10
-16 -18 -18 -18 -18 -18 -17 -16 -17 -17 -17 -16 -15 -14 -14 -13 -12 -13 -12 -13 -13 -12 -12 -11 -11 -11 -11 -11 -11 -11 -11 -11 -11 -11 -10 -10 -10 -10 -10 -11 -10 -10 -11 -11
-16 -18 -19 -18 -17 -18 -16 -18 -18 -17 -17 -17 -16 -16 -14 -13 -12 -12 -11 -12 -12 -12 -13 -11 -11 -11 -11 -11 -11 -11 -11 -11 -11 -11 -11 -11 -11 -11 -11 -11 -11 -11 -11 -11
-17 -18 -18 -18 -19 -18 -19 -18 -17 -18 -17 -17 -15 -14 -13 -12 -11 -11 -12 -12 -12 -12 -14 -11 -11 -11 -11 -11 -11 -11 -11 -11 -11 -11 -11 -11 -11 -11 -11 -11 -11 -11 -11 -11
-18 -18 -19 -19 -19 -19 -19 -18 -18 -18 -17 -15 -15 -15 -13 -12 -12 -12 -12 -12 -12 -14 -12 -11 -11 -11 -11 -11 -12 -11 -11 -11 -11 -11 -11 -11 -11 -11 -11 -11 -11 -12 -12 -12
-18 -18 -19 -19 -19 -18 -18 -17 -18 -17 -16 -15 -16 -14 -12 -12 -12 -12 -13 -13 -13 -12 -12 -12 -11 -11 -11 -12 -12 -11 -11 -12 -12 -12 -12 -12 -12 -12 -12 -12 -12 -12 -12 -12
-19 -18 -19 -19 -19 -19 -19 -19 -18 -17 -16 -16 -16 -14 -13 -13 -12 -12 -13 -13 -13 -12 -12 -12 -11 -12 -12 -12 -12 -12 -12 -12 -12 -12 -12 -12 -12 -12 -12 -12 -12 -13 -12 -12
-19 -20 -20 -20 -20 -20 -19 -19 -18 -17 -17 -17 -15 -14 -13 -13 -13 -12 -12 -13 -13 -12 -12 -12 -12 -12 -12 -12 -12 -12 -12 -12 -12 -12 -12 -12 -13 -13 -13 -13 -13 -13 -13 -13
-21 -20 -20 -19 -19 -18 -18 -18 -18 -18 -17 -16 -15 -15 -13 -13 -14 -13 -13 -14 -14 -13 -12 -12 -12 -12 -12 -12 -12 -12 -12 -13 -13 -13 -13 -13 -13 -13 -13 -13 -13 -13 -13 -13
-21 -21 -20 -19 -19 -20 -18 -18 -18 -18 -17 -16 -16 -15 -15 -14 -14 -14 -14 -13 -13 -13 -12 -12 -12 -13 -12 -12 -13 -13 -13 -13 -13 -13 -13 -13 -13 -14 -14 -14 -14 -14 -14 -14
-21 -20 -20 -20 -20 -19 -17 -18 -18 -18 -18 -18 -17 -14 -14 -15 -15 -13 -13 -13 -13 -12 -12 -12 -12 -12 -12 -13 -13 -13 -13 -13 -13 -14 -14 -14 -14 -14 -14 -14 -14 -14 -14 -14
-21 -21 -20 -18 -19 -19 -19 -18 -17 -18 -18 -16 -14 -14 -15 -15 -15 -14 -14 -14 -13 -13 -13 -13 -13 -13 -13 -13 -13 -14 -14 -14 -14 -14 -14 -14 -14 -14 -14 -14 -14 -15 -15 -15
-21 -21 -20 -20 -20 -20 -20 -20 -19 -18 -17 -17 -15 -15 -15 -16 -16 -16 -15 -15 -14 -14 -13 -13 -13 -13 -14 -14 -14 -14 -14 -14 -14 -14 -15 -14 -15 -15 -15 -15 -15 -15 -15 -16
-21 -21 -21 -21 -21 -20 -20 -20 -19 -18 -18 -17 -17 -17 -17 -17 -16 -16 -15 -15 -14 -14 -14 -14 -14 -14 -14 -14 -15 -15 -15 -15 -15 -15 -15 -15 -15 -15 -15 -15 -15 -16 -16 -16
-21 -21 -21 -21 -21 -21 -20 -18 -18 -18 -18 -17 -17 -17 -17 -16 -16 -16 -16 -15 -15 -15 -15 -15 -15 -15 -15 -15 -15 -15 -15 -15 -15 -15 -15 -15 -16 -16 -16 -16 -16 -16 -16 -16
-22 -22 -21 -21 -21 -20 -16 -18 -18 -19 -19 -19 -18 -18 -17 -17 -17 -16 -16 -16 -16 -16 -15 -15 -15 -15 -16 -16 -16 -15 -15 -16 -16 -16 -16 -16 -16 -16 -16 -16 -16 -17 -16 -16
-22 -23 -22 -22 -20 -19 -18 -17 -18 -18 -17 -18 -18 -18 -18 -17 -17 -16 -16 -16 -15 -15 -15 -15 -16 -16 -16 -16 -16 -16 -16 -16 -16 -16 -16 -16 -16 -16 -17 -17 -17 -17 -16 -17
-23 -23 -23 -23 -21 -18 -18 -18 -19 -19 -18 -18 -19 -18 -17 -16 -16 -16 -16 -16 -16 -15 -15 -16 -16 -16 -17 -17 -17 -17 -17 -17 -17 -17 -17 -17 -17 -17 -17 -17 -17 -17 -17 -18
-23 -23 -23 -23 -22 -21 -19 -19 -20 -18 -16 -18 -18 -18 -17 -17 -17 -17 -17 -16 -16 -16 -17 -17 -17 -17 -17 -17 -17 -17 -17 -17 -17 -17 -17 -17 -17 -18 -17 -17 -17 -17 -18 -19
-25 -24 -23 -23 -22 -22 -21 -20 -19 -18 -18 -18 -18 -18 -18 -17 -17 -17 -17 -17 -17 -17 -17 -17 -17 -17 -17 -18 -18 -18 -18 -18 -18 -18 -18 -18 -18 -17 -17 -17 -18 -19 -20 -20
-24 -24 -23 -23 -22 -22 -21 -21 -20 -19 -19 -18 -18 -18 -18 -18 -17 -17 -18 -18 -18 -18 -18 -18 -18 -18 -18 -18 -18 -18 -18 -18 -18 -18 -18 -18 -18 -18 -18 -19 -20 -20 -21 -21
-24 -24 -24 -23 -23 -23 -22 -21 -21 -20 -20 -19 -19 -18 -18 -18 -18 -18 -19 -18 -18 -19 -19 -19 -19 -19 -19 -19 -19 -19 -18 -19 -19 -19 -18 -18 -18 -19 -20 -21 -21 -21 -21 -21
-24 -24 -24 -24 -23 -23 -22 -22 -21 -21 -21 -20 -19 -19 -19 -19 -19 -18 -19 -19 -19 -19 -19 -19 -19 -19 -19 -19 -19 -19 -19 -19 -19 -18 -19 -19 -20 -21 -21 -22 -22 -22 -22 -22
-24 -24 -24 -23 -23 -22 -22 -22 -22 -21 -21 -21 -20 -20 -20 -20 -20 -20 -19 -19 -19 -20 -19 -19 -19 -19 -19 -20 -19 -19 -19 -19 -19 -20 -20 -21 -21 -22 -22 -22 -22 -22 -22 -22
Height
5652 5653 5657 5664 5668 5666 5672 5679 5685 5692 5700 5704 5713 5720 5724 5736 5742 5751 5764 5771 5780 5787 5792 5798 5802 5805 5809 5812 5816 5818 5820 5822 5822 5823 5824 5824 5824 5825 5824 5824 5823 5822 5820 5818
5646 5648 5653 5654 5653 5657 5662 5666 5675 5682 5690 5694 5704 5714 5719 5729 5737 5744 5754 5762 5770 5777 5784 5792 5795 5798 5802 5804 5808 5812 5814 5815 5816 5817 5818 5817 5818 5818 5818 5818 5817 5815 5813 5811
5639 5643 5642 5643 5646 5649 5656 5661 5671 5678 5684 5688 5695 5702 5707 5719 5728 5738 5748 5754 5761 5769 5777 5785 5788 5791 5794 5797 5801 5804 5807 5809 5810 5811 5811 5811 5812 5811 5811 5811 5809 5807 5805 5803
5628 5634 5633 5635 5639 5644 5650 5659 5665 5667 5675 5682 5688 5695 5702 5713 5723 5734 5743 5747 5755 5760 5768 5777 5781 5784 5788 5791 5794 5797 5799 5801 5803 5804 5804 5804 5805 5804 5804 5803 5801 5800 5797 5795
5624 5626 5625 5627 5638 5638 5651 5649 5655 5659 5668 5668 5677 5684 5698 5703 5713 5728 5734 5741 5750 5753 5761 5769 5773 5775 5779 5783 5786 5789 5792 5794 5796 5797 5797 5797 5796 5797 5796 5795 5793 5791 5789 5786
5615 5615 5612 5620 5624 5630 5637 5642 5650 5650 5656 5660 5675 5679 5689 5697 5711 5723 5727 5733 5745 5748 5753 5760 5763 5767 5771 5776 5779 5782 5784 5785 5788 5789 5790 5789 5789 5789 5788 5786 5785 5783 5780 5777
5607 5608 5607 5611 5615 5621 5626 5632 5632 5639 5648 5655 5666 5665 5689 5694 5703 5713 5719 5727 5736 5741 5747 5751 5756 5760 5765 5768 5771 5773 5775 5777 5779 5781 5781 5781 5780 5779 5779 5777 5776 5774 5771 5768
5600 5600 5603 5605 5608 5619 5624 5627 5631 5641 5650 5656 5655 5657 5679 5688 5696 5706 5713 5721 5727 5733 5740 5744 5747 5752 5757 5760 5762 5765 5767 5768 5770 5771 5772 5772 5771 5770 5769 5768 5767 5764 5761 5758
5594 5595 5598 5600 5603 5609 5614 5619 5634 5635 5639 5640 5650 5659 5672 5678 5687 5696 5706 5716 5723 5726 5732 5736 5740 5744 5748 5751 5754 5756 5758 5760 5761 5761 5762 5762 5761 5761 5760 5759 5756 5753 5750 5746
5586 5587 5590 5595 5595 5599 5605 5620 5619 5625 5630 5637 5649 5654 5666 5674 5681 5688 5701 5709 5714 5718 5722 5728 5731 5735 5739 5742 5745 5748 5749 5751 5752 5753 5753 5752 5751 5751 5750 5749 5746 5742 5739 5735
5578 5579 5585 5588 5587 5594 5601 5603 5606 5618 5624 5632 5639 5650 5659 5667 5675 5682 5691 5698 5705 5709 5714 5718 5722 5726 5729 5732 5736 5738 5740 5741 5742 5743 5742 5742 5742 5741 5740 5738 5735 5731 5728 5724
5570 5571 5572 5581 5585 5587 5593 5598 5606 5610 5620 5628 5632 5642 5652 5661 5667 5673 5683 5690 5696 5700 5703 5708 5712 5717 5720 5724 5726 5728 5730 5731 5732 5732 5732 5732 5732 5731 5729 5727 5723 5720 5716 5711
5560 5554 5561 5568 5574 5579 5586 5595 5600 5607 5610 5613 5622 5635 5645 5651 5659 5667 5676 5681 5687 5691 5696 5700 5704 5707 5711 5714 5717 5719 5720 5721 5722 5722 5722 5722 5721 5720 5717 5714 5711 5708 5703 5698
5545 5547 5551 5560 5572 5578 5581 5587 5593 5595 5601 5611 5617 5630 5638 5644 5651 5658 5666 5672 5677 5682 5686 5691 5694 5698 5701 5705 5708 5709 5711 5712 5712 5713 5712 5712 5710 5708 5705 5702 5699 5695 5690 5684
5530 5535 5542 5550 5559 5566 5572 5577 5584 5589 5601 5603 5615 5619 5628 5636 5642 5648 5655 5662 5668 5673 5678 5682 5685 5689 5693 5696 5697 5699 5701 5702 5702 5702 5702 5701 5699 5696 5693 5690 5686 5681 5676 5670
5520 5525 5536 5541 5549 5555 5562 5570 5574 5581 5589 5595 5603 5612 5620 5627 5635 5641 5647 5653 5659 5665 5670 5674 5678 5680 5683 5686 5688 5690 5691 5691 5692 5691 5691 5689 5686 5684 5681 5677 5673 5667 5661 5655
5511 5514 5526 5531 5541 5546 5547 5562 5571 5577 5583 5589 5593 5607 5612 5617 5626 5633 5639 5645 5651 5656 5661 5665 5668 5671 5674 5676 5678 5679 5680 5680 5681 5680 5679 5677 5674 5672 5668 5664 5659 5652 5646 5639
5500 5507 5513 5522 5531 5532 5543 5554 5562 5568 5574 5579 5586 5595 5602 5607 5614 5622 5630 5636 5641 5646 5650 5655 5658 5661 5665 5667 5668 5668 5669 5669 5669 5668 5666 5665 5662 5658 5654 5649 5643 5636 5630 5623
5490 5497 5503 5508 5517 5525 5532 5546 5554 5559 5569 5575 5579 5586 5591 5597 5604 5612 5620 5627 5633 5637 5641 5645 5648 5651 5653 5655 5656 5657 5657 5657 5656 5655 5654 5651 5649 5644 5639 5633 5627 5621 5614 5606
5479 5488 5496 5502 5507 5513 5526 5535 5544 5550 5553 5564 5570 5579 5586 5594 5599 5608 5613 5618 5623 5627 5631 5634 5637 5640 5642 5643 5644 5645 5645 5645 5644 5643 5641 5638 5634 5629 5623 5617 5611 5604 5597 5590
5467 5477 5485 5493 5500 5507 5518 5528 5536 5540 5558 5558 5564 5571 5576 5583 5591 5597 5603 5608 5613 5617 5621 5624 5626 5628 5630 5632 5633 5634 5634 5633 5632 5630 5627 5623 5618 5613 5608 5601 5595 5588 5581 5574
5459 5468 5476 5486 5493 5501 5511 5520 5528 5537 5541 5549 5555 5561 5568 5575 5580 5585 5590 5595 5601 5606 5610 5612 5614 5617 5620 5621 5622 5622 5622 5620 5618 5615 5611 5607 5602 5598 5592 5586 5579 5571 5565 5558
5452 5463 5473 5481 5489 5496 5505 5515 5523 5529 5535 5540 5547 5553 5560 5567 5573 5577 5581 5586 5590 5593 5596 5600 5604 5606 5608 5609 5609 5609 5608 5606 5604 5601 5597 5593 5588 5582 5576 5570 5563 5556 5549 5541
5446 5456 5465 5476 5484 5494 5502 5510 5518 5523 5529 5533 5540 5546 5552 5558 5564 5569 5573 5576 5580 5584 5588 5591 5593 5595 5596 5597 5597 5596 5594 5592 5590 5587 5583 5578 5572 5566 5560 5554 5547 5541 5533 5526
5444 5453 5460 5469 5479 5488 5496 5504 5511 5518 5523 5529 5534 5539 5545 5550 5555 5560 5565 5569 5573 5577 5579 5581 5583 5584 5585 5585 5585 5583 5582 5580 5576 5573 5567 5562 5557 5551 5546 5539 5533 5525 5516 5508
5439 5446 5453 5464 5476 5484 5492 5499 5506 5512 5518 5523 5529 5534 5538 5543 5548 5553 5557 5561 5564 5567 5570 5572 5573 5574 5574 5573 5572 5570 5568 5565 5561 5556 5552 5548 5543 5538 5532 5526 5517 5507 5498 5488
Wind_Speed
27 34 33 34 38 43 46 48 49 52 52 60 55 52 62 61 45 63 58 50 46 44 45 41 38 38 36 34 33 31 28 25 22 20 20 20 21 22 23 24 25 26 27 30
32 22 29 44 46 45 45 48 48 48 47 54 49 47 48 65 58 32 59 54 48 48 49 42 39 39 37 36 34 31 30 28 25 23 23 24 23 24 25 26 27 28 30 31
31 24 28 36 45 48 45 49 47 45 45 48 50 46 50 57 59 54 41 53 50 42 46 42 41 40 39 36 35 33 32 29 27 27 26 26 25 26 28 27 29 31 31 33
32 28 35 37 40 44 47 47 45 48 42 45 48 51 52 49 53 51 47 31 52 50 44 40 40 40 37 36 35 33 32 31 30 30 28 27 27 29 29 30 32 33 33 34
26 24 33 39 41 40 39 42 42 45 48 45 47 47 45 42 46 53 50 44 36 46 38 39 40 40 38 36 34 34 34 32 33 31 30 29 29 31 32 33 34 34 36 37
27 27 33 33 36 40 38 37 40 45 44 47 41 48 43 48 47 47 39 42 47 47 38 42 42 42 39 36 34 35 34 34 34 32 31 31 31 32 34 34 36 37 37 39
20 26 28 33 36 36 40 48 39 48 43 38 42 51 40 43 41 37 30 35 42 37 40 42 42 41 36 34 35 35 35 34 33 33 34 33 32 34 35 37 38 39 40 41
23 27 26 30 35 37 38 45 41 36 33 38 48 49 38 42 38 36 33 40 38 37 36 35 38 39 37 36 36 36 34 33 34 34 34 34 34 36 37 38 39 40 42 44
24 23 26 28 24 39 42 49 45 43 49 57 42 38 38 45 39 41 39 36 36 35 33 35 37 37 36 37 36 36 35 35 35 35 35 35 36 38 38 40 41 43 45 47
23 25 25 28 29 39 51 41 40 42 43 57 51 46 39 44 47 44 42 35 36 33 33 36 36 34 35 37 37 34 35 37 36 35 36 36 37 38 40 42 43 45 47 49
28 29 26 30 33 31 52 54 51 43 45 37 41 49 47 49 50 50 48 39 34 33 32 32 33 35 37 37 34 36 37 36 37 37 37 37 38 39 41 43 45 48 49 52
24 32 33 29 28 30 40 46 48 54 47 50 38 40 47 46 46 50 47 43 36 38 35 33 33 34 35 34 36 38 38 37 37 38 38 38 39 40 42 45 47 50 52 55
27 42 44 37 37 36 35 39 52 50 54 50 43 51 47 43 39 40 42 45 40 34 33 32 33 34 36 37 39 38 38 38 38 38 38 39 39 41 44 47 50 53 55 56
35 40 45 37 31 29 31 35 43 50 56 51 50 49 47 41 39 40 38 31 26 30 31 32 34 36 38 38 38 38 38 38 38 38 38 39 41 43 47 50 53 55 56 58
43 44 43 41 38 38 38 37 40 45 56 58 54 51 45 43 40 37 33 29 29 27 29 33 35 37 38 38 38 39 38 38 39 39 40 41 44 47 50 53 55 57 58 60
48 46 40 37 34 39 39 34 34 41 37 38 41 40 34 34 31 31 31 32 33 32 32 34 35 38 39 39 38 38 39 40 40 40 41 44 47 49 52 55 57 58 60 63
55 52 48 46 37 40 47 38 36 31 34 38 40 35 34 38 37 34 32 30 28 29 30 34 36 37 39 39 39 40 41 41 41 41 44 47 50 52 55 58 59 61 63 67
54 53 48 43 39 44 41 38 38 39 38 33 33 29 35 35 33 33 32 31 32 33 36 37 38 39 39 39 41 43 43 42 43 45 47 49 52 55 58 60 61 63 67 71
52 52 45 45 50 51 44 40 39 36 36 36 35 33 34 35 36 35 35 35 36 38 37 37 37 38 40 43 44 42 43 43 45 47 49 52 55 58 60 61 63 67 71 74
51 59 51 44 52 55 45 39 35 40 42 37 38 36 34 32 34 33 34 35 36 37 38 39 40 41 42 43 43 43 44 45 48 50 52 55 58 60 60 63 68 71 73 73
49 50 57 49 48 52 46 42 35 41 35 35 37 38 39 38 36 35 35 37 40 41 40 38 40 42 45 44 44 45 46 48 50 51 55 58 58 60 63 68 71 73 71 69
59 52 58 50 46 47 42 42 41 35 36 37 32 34 34 36 37 37 38 39 39 39 40 43 44 44 43 43 44 46 48 49 51 54 56 59 60 63 68 71 70 69 68 69
62 40 51 56 47 44 39 36 33 33 32 32 36 34 33 32 32 35 35 35 37 39 42 42 40 41 42 44 45 47 48 51 53 56 60 61 64 67 69 68 66 66 68 69
57 51 45 53 43 34 30 29 27 29 23 20 26 29 31 28 30 34 36 37 39 39 39 40 41 42 43 44 46 49 52 53 56 60 61 64 66 65 64 63 64 66 68 70
38 35 47 43 51 40 37 30 25 25 26 23 21 25 28 32 32 34 36 37 38 38 39 40 41 43 45 47 51 52 54 58 59 61 62 62 60 59 60 62 64 66 70 75
32 32 35 49 34 36 36 36 29 25 28 24 24 24 27 31 33 35 36 37 37 38 40 42 44 46 48 49 52 56 57 58 58 58 57 56 57 59 60 62 65 71 76 81
Wind_Direction
270 253 256 245 238 229 227 230 231 233 236 238 241 239 240 241 248 207 218 216 219 223 230 233 236 232 228 230 233 239 244 250 255 261 269 274 279 285 292 296 300 301 301 302
278 261 248 232 231 228 226 225 229 230 228 236 238 240 237 238 227 232 216 213 216 223 229 233 236 232 228 230 234 239 246 251 256 262 267 273 280 289 294 298 297 296 297 301
276 250 249 238 233 230 224 227 227 231 231 232 233 232 235 234 239 240 230 211 214 219 227 231 237 231 230 231 234 240 246 253 257 262 268 275 282 287 292 294 292 293 297 300
265 252 240 238 223 227 224 226 229 233 227 234 236 236 236 238 238 238 246 232 223 220 225 233 237 232 233 235 236 242 248 253 259 264 270 276 281 285 290 289 291 294 297 299
277 255 255 243 232 231 223 226 227 230 227 227 227 230 226 223 226 234 245 244 252 218 222 230 231 228 231 234 237 242 249 254 259 265 269 274 278 284 287 289 291 293 296 300
277 255 251 229 223 223 218 212 209 224 217 222 228 231 225 230 232 233 241 241 253 234 222 229 227 227 230 235 239 244 248 253 260 265 268 272 277 282 286 288 290 293 296 299
273 256 249 221 217 217 220 197 216 213 211 225 219 223 220 220 222 231 236 250 239 211 223 225 225 228 231 235 240 243 248 254 259 263 268 273 278 282 284 287 290 293 296 298
268 242 247 235 219 219 213 206 221 230 227 223 212 218 208 214 215 220 203 212 207 218 223 227 229 230 232 237 242 246 251 255 257 262 268 273 278 280 283 287 290 292 295 297
267 253 242 240 231 211 204 216 216 219 220 220 215 219 206 208 206 194 195 211 222 226 228 230 231 232 235 240 244 248 251 254 258 263 268 273 277 281 284 287 290 292 294 297
247 245 237 236 229 212 210 209 211 208 213 220 218 214 202 204 190 189 202 219 233 241 233 230 231 231 235 240 244 249 252 254 258 264 268 273 278 281 285 288 290 292 295 297
245 243 230 228 223 230 217 217 217 214 217 212 210 211 205 200 208 210 219 233 236 234 231 230 230 232 235 241 245 248 251 256 261 264 270 275 278 282 285 287 290 293 295 298
236 248 243 233 236 226 217 219 223 224 206 217 219 209 205 213 217 227 234 234 236 235 238 235 233 234 237 240 243 245 251 256 260 266 271 275 279 282 285 288 291 293 295 297
216 231 237 234 228 219 226 222 229 233 228 223 218 202 210 215 219 221 222 228 239 238 238 240 240 239 240 242 245 248 252 256 262 266 271 275 279 283 286 288 290 293 295 297
212 228 236 231 230 232 231 225 230 236 233 224 212 212 213 219 219 219 226 228 226 229 231 230 231 234 238 240 244 248 253 257 262 267 271 275 280 284 286 288 291 294 296 298
207 224 230 228 235 239 244 241 227 228 226 226 213 222 222 222 227 228 231 227 223 224 226 231 233 236 239 242 245 250 254 260 265 268 273 278 281 283 287 291 294 295 297 298
210 223 223 228 227 233 235 238 235 218 220 230 235 235 235 236 233 231 231 234 234 234 233 232 236 239 241 244 247 253 257 260 265 270 275 278 281 286 290 293 293 295 297 299
215 213 217 226 226 231 235 217 226 219 217 222 221 218 225 227 224 223 226 228 231 229 228 231 235 239 243 247 252 254 258 262 267 272 275 279 283 288 291 293 295 296 297 299
216 216 211 218 216 225 216 220 224 227 222 227 222 221 220 218 225 227 226 227 228 231 236 237 239 243 247 249 251 254 259 264 268 273 277 282 286 290 293 295 295 296 298 300
207 208 212 216 216 222 225 214 222 232 223 220 222 218 221 218 223 226 229 233 235 238 242 245 246 245 246 248 251 256 262 267 272 276 281 284 289 293 295 294 296 297 299 300
221 224 219 216 219 219 219 223 223 229 228 221 221 221 226 228 230 232 236 240 243 243 244 245 244 243 246 250 256 261 266 271 275 278 283 287 292 294 294 296 297 298 299 299
209 212 211 216 223 229 225 224 229 231 224 231 230 230 229 229 230 229 229 233 236 238 240 241 242 245 249 254 259 264 268 272 276 282 286 291 293 292 294 296 297 297 298 301
213 218 210 215 216 223 224 225 226 231 233 233 232 233 234 230 225 228 229 232 233 235 238 240 241 246 252 257 261 266 270 275 282 285 290 292 291 292 293 294 295 297 300 303
208 213 218 216 219 220 225 225 227 237 242 239 234 234 239 239 237 231 227 229 231 230 233 240 248 252 256 259 263 269 275 280 282 287 290 289 291 292 292 294 297 300 301 304
210 212 212 213 214 218 226 226 231 236 238 234 230 229 228 227 229 229 227 229 233 237 242 247 250 253 258 265 270 276 279 280 284 286 288 289 290 291 294 297 299 301 303 306
212 220 215 216 217 218 222 222 224 230 229 231 230 220 223 226 227 228 231 234 238 242 246 251 257 262 267 271 272 274 278 281 283 286 288 289 291 294 296 298 301 303 305 308
219 219 221 218 210 216 223 228 220 223 223 221 222 217 218 222 226 230 235 241 246 249 252 256 260 264 265 266 270 276 279 283 284 286 288 290 292 295 298 300 303 306 309 312